TITAN 3C TRANSTAGE R/B, 2222

Orbit data source: Space-Track

TITAN 3C TRANSTAGE R/B, 2222 is space debris in GEO originally from a launch on Thu, 16 Jun 1966 UTC launched from the Air Force Eastern Test Range (AFETR). Debris objects in space refer to the collection of defunct objects orbiting the Earth. Examples of debris include non-operational satellites, rocket bodies, and fragments generated from explosions, collisions, or faulty payload assembly.

Not visible in the next 10 days
Identifier
2222, 1966-053J
Orbit
GEO
Last TLE update
15 hours ago
Origin
Manufacturer
Martin Marietta
Mission
Spacecraft
Bus & Motor
TRANSTAGE, Unknown motor
Mass
2,050 kg wet, 2,050 kg dry
Launch date (UTC)
1966-06-16 (59 years ago)
Launch vehicle
Unknown
Launch site
Air Force Eastern Test Range (AFETR)
Object type
Payload
Rocket body
Debris
Shape & HBR
Cyl + 2 Nozzle, 2.3 m
Radar Cross Section
14.974 m², Large (>1 m²)

Expand to show TLE details & history

TLE from 15 hours ago
0 TITAN 3C TRANSTAGE R/B
1 02222U 66053J   25199.33849046 -.00000078  00000-0  00000-0 0  9997
2 02222   7.7480  51.0504 0163136 160.9177 185.2572  1.06721205126814
Epoch: 2025-07-18T08:07Z
TLE epoch observation values (Epoch: 2025-07-18T08:07:25.575Z)
Latitude
-1.87602°
Longitude
-21.06471°
Altitude
34,724.802 km
Speed
3.089 km/s
True Right ascension
02h 28m 43s
True Declination
-1° 52' 27"
Sunlit
Object was in daylight at epoch
Visualization orbit readout
Latitude
-5.58072°
Longitude
-141.463°
Altitude
33,784.173 km
Speed
3.162 km/s
Apparent Right ascension
18h 54m 06s
Apparent Declination
-10° 58' 40"
Sunlit
Object is in daylight
Visualization observer readout
Local Sidereal Time
11:47:30
Azimuth
87.902° E
Elevation
-19.752°
Doppler factor
1
Orbital elements
Apogee altitude
34,731.225 km
Perigee altitude
33,411.472 km
Semi-major axis
40,449.486 km
Eccentricity
0.01631
Inclination
7.748°
RAAN
51.0504°
Arg. of periapsis
160.9177°
True anomaly
185.08932°
Mean anomaly
185.2572°
Eccentric anomaly
185.17293°
Mean motion
0.26679 °/min
Orbital period
1,349.36 mins
BSTAR
0
Loading maneuver chart data...
Loading SW <> Apogee altitude chart data...
Loading historical data...
Loading historical data...
Loading historical data...
Loading historical data...
Loading historical data...
Loading historical data...
Loading historical data...
|